TimePDT,TemperatureF,Dew PointF,Humidity,Sea Level PressureIn,VisibilityMPH,Wind Direction,Wind SpeedMPH,Gust SpeedMPH,PrecipitationIn,Events,Conditions,WindDirDegrees,DateUTC
12:15 AM,53.6,8.6,16,29.99,10.0,SW,18.4,39.1,N/A,,Clear,220,2013-06-19 07:15:00
12:35 AM,53.6,8.6,16,29.98,10.0,SW,27.6,38.0,N/A,,Clear,220,2013-06-19 07:35:00
12:55 AM,53.6,6.8,15,29.99,10.0,SW,13.8,33.4,N/A,,Clear,220,2013-06-19 07:55:00
1:15 AM,51.8,5.0,15,29.99,10.0,SSW,15.0,29.9,N/A,,Clear,210,2013-06-19 08:15:00
1:35 AM,51.8,6.8,16,29.99,10.0,SSW,23.0,31.1,N/A,,Clear,210,2013-06-19 08:35:00
1:55 AM,51.8,6.8,16,29.99,10.0,West,8.1,28.8,N/A,,Clear,260,2013-06-19 08:55:00
2:15 AM,51.8,6.8,16,29.99,10.0,SW,8.1,23.0,N/A,,Clear,230,2013-06-19 09:15:00
2:35 AM,51.8,6.8,16,29.99,10.0,SW,17.3,24.2,N/A,,Clear,220,2013-06-19 09:35:00
2:55 AM,51.8,8.6,18,29.98,10.0,SSW,12.7,24.2,N/A,,Clear,200,2013-06-19 09:55:00
3:15 AM,50.0,8.6,19,29.99,10.0,South,5.8,23.0,N/A,,Clear,180,2013-06-19 10:15:00
3:35 AM,46.4,12.2,25,29.99,10.0,North,5.8,-,N/A,,Clear,10,2013-06-19 10:35:00
3:55 AM,50.0,5.0,16,29.99,10.0,SW,11.5,19.6,N/A,,Clear,230,2013-06-19 10:55:00
4:15 AM,50.0,5.0,16,29.99,10.0,West,6.9,31.1,N/A,,Clear,280,2013-06-19 11:15:00
4:35 AM,48.2,6.8,19,30.00,10.0,WNW,10.4,32.2,N/A,,Clear,300,2013-06-19 11:35:00
4:55 AM,50.0,-4.0,11,30.00,10.0,West,16.1,34.5,N/A,,Clear,260,2013-06-19 11:55:00
5:15 AM,51.8,-7.6,8,30.00,10.0,WSW,13.8,28.8,N/A,,Clear,250,2013-06-19 12:15:00
5:35 AM,51.8,-9.4,8,30.00,10.0,WSW,25.3,29.9,N/A,,Clear,240,2013-06-19 12:35:00
5:55 AM,48.2,5.0,17,30.00,10.0,WNW,13.8,25.3,N/A,,Clear,290,2013-06-19 12:55:00
6:15 AM,42.8,12.2,29,30.01,10.0,North,11.5,17.3,N/A,,Clear,350,2013-06-19 13:15:00
6:35 AM,48.2,-0.4,13,30.01,10.0,NW,8.1,16.1,N/A,,Clear,320,2013-06-19 13:35:00
6:55 AM,51.8,-2.2,11,30.02,10.0,WNW,8.1,19.6,N/A,,Clear,300,2013-06-19 13:55:00
7:15 AM,51.8,-0.4,12,30.02,10.0,NW,13.8,25.3,N/A,,Clear,320,2013-06-19 14:15:00
7:35 AM,53.6,-2.2,10,30.01,10.0,NW,15.0,20.7,N/A,,Clear,310,2013-06-19 14:35:00
7:55 AM,55.4,-4.0,9,30.01,10.0,NW,17.3,24.2,N/A,,Clear,310,2013-06-19 14:55:00
8:15 AM,57.2,-5.8,8,30.02,10.0,WNW,19.6,26.5,N/A,,Clear,300,2013-06-19 15:15:00
8:35 AM,59.0,-9.4,6,30.03,10.0,West,15.0,27.6,N/A,,Clear,270,2013-06-19 15:35:00
8:55 AM,60.8,-4.0,7,30.03,10.0,WNW,18.4,23.0,N/A,,Clear,300,2013-06-19 15:55:00
9:15 AM,60.8,-5.8,7,30.03,10.0,West,15.0,31.1,N/A,,Clear,280,2013-06-19 16:15:00
9:35 AM,60.8,-5.8,7,30.04,10.0,WNW,24.2,34.5,N/A,,Clear,290,2013-06-19 16:35:00
9:55 AM,62.6,-5.8,6,30.04,10.0,West,20.7,34.5,N/A,,Clear,280,2013-06-19 16:55:00
10:15 AM,62.6,-2.2,7,30.05,10.0,West,24.2,34.5,N/A,,Clear,280,2013-06-19 17:15:00
10:35 AM,62.6,-2.2,7,30.05,10.0,West,21.9,27.6,N/A,,Clear,280,2013-06-19 17:35:00
10:55 AM,64.4,-0.4,7,30.06,10.0,WNW,24.2,27.6,N/A,,Clear,290,2013-06-19 17:55:00
11:15 AM,64.4,-0.4,7,30.06,10.0,West,18.4,27.6,N/A,,Clear,280,2013-06-19 18:15:00
11:35 AM,66.2,-2.2,6,30.06,10.0,West,18.4,26.5,N/A,,Clear,280,2013-06-19 18:35:00
11:55 AM,66.2,-0.4,7,30.07,10.0,West,16.1,25.3,N/A,,Clear,280,2013-06-19 18:55:00
12:15 PM,66.2,1.4,8,30.07,10.0,West,18.4,25.3,N/A,,Clear,280,2013-06-19 19:15:00
12:35 PM,66.2,1.4,8,30.07,10.0,WNW,11.5,20.7,N/A,,Clear,290,2013-06-19 19:35:00
12:55 PM,68.0,3.2,8,30.07,10.0,West,4.6,20.7,N/A,,Clear,270,2013-06-19 19:55:00
1:15 PM,68.0,6.8,9,30.08,10.0,WNW,20.7,24.2,N/A,,Clear,290,2013-06-19 20:15:00
1:35 PM,68.0,6.8,9,30.08,10.0,WNW,16.1,28.8,N/A,,Clear,300,2013-06-19 20:35:00
1:55 PM,68.0,8.6,10,30.08,10.0,West,13.8,27.6,N/A,,Clear,280,2013-06-19 20:55:00
2:15 PM,68.0,8.6,10,30.07,10.0,NW,18.4,25.3,N/A,,Clear,320,2013-06-19 21:15:00
2:35 PM,69.8,8.6,9,30.07,10.0,West,13.8,25.3,N/A,,Clear,270,2013-06-19 21:35:00
2:55 PM,68.0,10.4,11,30.07,10.0,WNW,20.7,26.5,N/A,,Clear,290,2013-06-19 21:55:00
3:15 PM,69.8,10.4,10,30.07,10.0,WNW,19.6,29.9,N/A,,Clear,290,2013-06-19 22:15:00
3:35 PM,68.0,10.4,11,30.06,10.0,WNW,18.4,29.9,N/A,,Clear,300,2013-06-19 22:35:00
3:55 PM,69.8,14.0,12,30.06,10.0,WNW,19.6,28.8,N/A,,Clear,300,2013-06-19 22:55:00
4:15 PM,68.0,14.0,12,30.07,10.0,WNW,21.9,34.5,N/A,,Clear,290,2013-06-19 23:15:00
4:35 PM,68.0,14.0,12,30.07,10.0,WNW,20.7,31.1,N/A,,Clear,290,2013-06-19 23:35:00
4:55 PM,68.0,15.8,13,30.07,10.0,West,13.8,24.2,N/A,,Clear,280,2013-06-19 23:55:00
5:15 PM,66.2,15.8,14,30.07,10.0,WNW,18.4,32.2,N/A,,Clear,300,2013-06-20 00:15:00
5:35 PM,66.2,15.8,14,30.07,10.0,WNW,19.6,27.6,N/A,,Clear,290,2013-06-20 00:35:00
5:55 PM,66.2,10.4,11,30.07,10.0,West,18.4,31.1,N/A,,Clear,280,2013-06-20 00:55:00
6:15 PM,66.2,8.6,11,30.07,10.0,WNW,19.6,-,N/A,,Clear,290,2013-06-20 01:15:00
6:35 PM,64.4,12.2,13,30.08,10.0,WNW,17.3,25.3,N/A,,Clear,300,2013-06-20 01:35:00
6:55 PM,62.6,8.6,12,30.08,10.0,WNW,11.5,24.2,N/A,,Clear,290,2013-06-20 01:55:00
7:15 PM,60.8,19.4,20,30.09,10.0,NW,16.1,24.2,N/A,,Clear,320,2013-06-20 02:15:00
7:35 PM,59.0,21.2,23,30.09,10.0,NW,10.4,20.7,N/A,,Clear,310,2013-06-20 02:35:00
7:55 PM,57.2,21.2,25,30.09,10.0,WNW,16.1,19.6,N/A,,Clear,300,2013-06-20 02:55:00
8:15 PM,53.6,23.0,30,30.09,10.0,WNW,17.3,25.3,N/A,,Clear,300,2013-06-20 03:15:00
8:35 PM,53.6,24.8,33,30.09,10.0,WNW,19.6,26.5,N/A,,Clear,290,2013-06-20 03:35:00
8:55 PM,50.0,26.6,40,30.09,10.0,West,11.5,-,N/A,,Clear,260,2013-06-20 03:55:00
9:15 PM,50.0,24.8,37,30.09,10.0,WNW,6.9,11.5,N/A,,Clear,290,2013-06-20 04:15:00
9:35 PM,50.0,23.0,35,30.09,10.0,SSE,3.5,-,N/A,,Clear,160,2013-06-20 04:35:00
9:55 PM,50.0,17.6,28,30.09,10.0,Calm,Calm,-,N/A,,Clear,0,2013-06-20 04:55:00
10:15 PM,48.2,17.6,30,30.10,10.0,Calm,Calm,-,N/A,,Clear,0,2013-06-20 05:15:00
10:35 PM,42.8,15.8,34,30.09,10.0,WSW,4.6,-,N/A,,Clear,250,2013-06-20 05:35:00
10:55 PM,42.8,15.8,34,30.09,10.0,West,4.6,-,N/A,,Clear,280,2013-06-20 05:55:00
11:15 PM,44.6,15.8,31,30.09,10.0,West,10.4,-,N/A,,Clear,280,2013-06-20 06:15:00
11:35 PM,44.6,14.0,29,30.09,10.0,WNW,6.9,-,N/A,,Clear,300,2013-06-20 06:35:00
11:55 PM,44.6,14.0,29,30.08,10.0,Calm,Calm,-,N/A,,Clear,0,2013-06-20 06:55:00